| time (UTC) | temp C | wind direction | speed KPH | gust KPH | rain 1hr cm | rain 24hr cm | rain mn cm | humidity % | barometer mb |
| 20260507180517 | 10 | 329 | 6.4 | 27.4 | 0.00 | 0.00 | 0.00 | 32 | 1012.9 |
| 20260507180023 | 10 | 299 | 12.9 | 27.4 | 0.00 | 0.00 | 0.00 | 31 | 1012.8 |
| 20260507175517 | 10 | 311 | 11.3 | 22.5 | 0.00 | 0.00 | 0.00 | 31 | 1012.9 |
| 20260507175116 | 10 | 263 | 12.9 | 19.3 | 0.00 | 0.00 | 0.00 | 31 | 1012.8 |
| 20260507174515 | 10 | 273 | 11.3 | 20.9 | 0.00 | 0.00 | 0.00 | 32 | 1013.0 |
| 20260507174014 | 10 | 276 | 11.3 | 19.3 | 0.00 | 0.00 | 0.00 | 33 | 1013.1 |
| 20260507173514 | 10 | 320 | 6.4 | 20.9 | 0.00 | 0.00 | 0.00 | 32 | 1013.2 |
| 20260507173027 | 10 | 312 | 4.8 | 20.9 | 0.00 | 0.00 | 0.00 | 32 | 1013.3 |
| 20260507172513 | 10 | 311 | 6.4 | 19.3 | 0.00 | 0.00 | 0.00 | 33 | 1013.3 |
| 20260507172011 | 10 | 300 | 6.4 | 24.1 | 0.00 | 0.00 | 0.00 | 32 | 1013.2 |
| 20260507171511 | 10 | 278 | 12.9 | 24.1 | 0.00 | 0.00 | 0.00 | 32 | 1013.3 |
| 20260507171012 | 10 | 288 | 8.0 | 12.9 | 0.00 | 0.00 | 0.00 | 32 | 1013.4 |
| 20260507170510 | 10 | 281 | 1.6 | 8.0 | 0.00 | 0.00 | 0.00 | 34 | 1013.4 |
| 20260507170008 | 9 | 118 | 1.6 | 12.9 | 0.00 | 0.00 | 0.00 | 33 | 1013.4 |
| 20260507165510 | 9 | 280 | 8.0 | 20.9 | 0.00 | 0.00 | 0.00 | 32 | 1013.5 |
| 20260507165010 | 9 | 314 | 9.7 | 22.5 | 0.00 | 0.00 | 0.00 | 33 | 1013.5 |
| 20260507164508 | 9 | 290 | 11.3 | 25.7 | 0.00 | 0.00 | 0.00 | 33 | 1013.5 |
| 20260507164007 | 9 | 278 | 12.9 | 25.7 | 0.00 | 0.00 | 0.00 | 33 | 1013.5 |
| 20260507163506 | 9 | 292 | 3.2 | 12.9 | 0.00 | 0.00 | 0.00 | 34 | 1013.7 |
| 20260507163010 | 9 | 307 | 4.8 | 12.9 | 0.00 | 0.00 | 0.00 | 33 | 1013.8 |
| 20260507162504 | 9 | 276 | 3.2 | 14.5 | 0.00 | 0.00 | 0.00 | 35 | 1013.8 |
| 20260507162004 | 9 | 316 | 8.0 | 14.5 | 0.00 | 0.00 | 0.00 | 34 | 1013.9 |
| 20260507161503 | 8 | 316 | 0.0 | 14.5 | 0.00 | 0.00 | 0.00 | 36 | 1013.9 |
| 20260507161002 | 8 | 79 | 8.0 | 14.5 | 0.00 | 0.00 | 0.00 | 34 | 1013.9 |
| 20260507160501 | 8 | 20 | 0.0 | 8.0 | 0.00 | 0.00 | 0.00 | 40 | 1013.9 |
| 20260507160100 | 8 | 323 | 3.2 | 9.7 | 0.00 | 0.00 | 0.00 | 38 | 1014.0 |
| 20260507155559 | 8 | 316 | 4.8 | 9.7 | 0.00 | 0.00 | 0.00 | 38 | 1013.9 |
| 20260507155106 | 8 | 292 | 0.0 | 14.5 | 0.00 | 0.00 | 0.00 | 39 | 1014.0 |
| 20260507154600 | 8 | 293 | 6.4 | 14.5 | 0.00 | 0.00 | 0.00 | 37 | 1014.0 |
| 20260507154059 | 8 | 281 | 1.6 | 8.0 | 0.00 | 0.00 | 0.00 | 43 | 1014.0 |
| 20260507153556 | 8 | 278 | 1.6 | 11.3 | 0.00 | 0.00 | 0.00 | 42 | 1014.1 |
| 20260507153056 | 7 | 200 | 4.8 | 14.5 | 0.00 | 0.00 | 0.00 | 43 | 1014.0 |
| 20260507152555 | 7 | 297 | 8.0 | 14.5 | 0.00 | 0.00 | 0.00 | 43 | 1014.1 |
| 20260507152053 | 7 | 167 | 0.0 | 16.1 | 0.00 | 0.00 | 0.00 | 42 | 1014.1 |
| 20260507151553 | 7 | 259 | 6.4 | 16.1 | 0.00 | 0.00 | 0.00 | 43 | 1014.1 |
| 20260507151051 | 7 | 288 | 6.4 | 12.9 | 0.00 | 0.00 | 0.00 | 44 | 1014.0 |
| 20260507150552 | 7 | 276 | 6.4 | 9.7 | 0.00 | 0.00 | 0.00 | 44 | 1014.1 |
| 20260507150049 | 7 | 315 | 0.0 | 12.9 | 0.00 | 0.00 | 0.00 | 47 | 1014.1 |
| 20260507145548 | 7 | 287 | 4.8 | 11.3 | 0.00 | 0.00 | 0.00 | 46 | 1014.1 |
| 20260507145049 | 7 | 274 | 4.8 | 11.3 | 0.00 | 0.00 | 0.00 | 47 | 1014.2 |
| 20260507144547 | 6 | 280 | 3.2 | 11.3 | 0.00 | 0.00 | 0.00 | 46 | 1014.2 |
| 20260507144048 | 6 | 297 | 3.2 | 11.3 | 0.00 | 0.00 | 0.00 | 47 | 1014.2 |
| 20260507143550 | 6 | 274 | 3.2 | 9.7 | 0.00 | 0.00 | 0.00 | 48 | 1014.2 |
| 20260507143045 | 6 | 290 | 3.2 | 8.0 | 0.00 | 0.00 | 0.00 | 49 | 1014.2 |
| 20260507142544 | 6 | 288 | 1.6 | 8.0 | 0.00 | 0.00 | 0.00 | 49 | 1014.3 |
| 20260507142043 | 6 | 293 | 3.2 | 8.0 | 0.00 | 0.00 | 0.00 | 51 | 1014.3 |
| 20260507141548 | 6 | 297 | 1.6 | 9.7 | 0.00 | 0.00 | 0.00 | 51 | 1014.3 |
| 20260507141042 | 6 | 316 | 3.2 | 9.7 | 0.00 | 0.00 | 0.00 | 51 | 1014.3 |
| 20260507140543 | 6 | 302 | 0.0 | 4.8 | 0.00 | 0.00 | 0.00 | 55 | 1014.3 |
| 20260507140043 | 6 | 316 | 0.0 | 4.8 | 0.00 | 0.00 | 0.00 | 56 | 1014.3 |
| 20260507135538 | 6 | 246 | 1.6 | 4.8 | 0.00 | 0.00 | 0.00 | 59 | 1014.3 |
| 20260507135037 | 6 | 283 | 0.0 | 6.4 | 0.00 | 0.00 | 0.00 | 62 | 1014.3 |
| 20260507134539 | 5 | 228 | 1.6 | 8.0 | 0.00 | 0.00 | 0.00 | 63 | 1014.4 |
| 20260507134035 | 5 | 253 | 3.2 | 8.0 | 0.00 | 0.00 | 0.00 | 65 | 1014.4 |
| 20260507133533 | 5 | 274 | 3.2 | 6.4 | 0.00 | 0.00 | 0.00 | 65 | 1014.4 |
| 20260507133035 | 5 | 269 | 3.2 | 6.4 | 0.00 | 0.00 | 0.00 | 67 | 1014.4 |
| 20260507132533 | 5 | 253 | 0.0 | 3.2 | 0.00 | 0.00 | 0.00 | 69 | 1014.5 |
| 20260507132028 | 4 | 293 | 0.0 | 3.2 | 0.00 | 0.00 | 0.00 | 71 | 1014.5 |
| 20260507131533 | 4 | 284 | 1.6 | 4.8 | 0.00 | 0.00 | 0.00 | 73 | 1014.5 |
| 20260507131028 | 3 | 271 | 0.0 | 6.4 | 0.00 | 0.00 | 0.00 | 73 | 1014.6 |
| 20260507130528 | 3 | 302 | 3.2 | 6.4 | 0.00 | 0.00 | 0.00 | 74 | 1014.5 |
| 20260507130024 | 3 | 275 | 0.0 | 1.6 | 0.00 | 0.00 | 0.00 | 78 | 1014.5 |
| 20260507125523 | 3 | 281 | 0.0 | 3.2 | 0.00 | 0.00 | 0.00 | 79 | 1014.5 |
| 20260507125022 | 2 | 276 | 0.0 | 3.2 | 0.00 | 0.00 | 0.00 | 79 | 1014.6 |
| 20260507124529 | 2 | 283 | 1.6 | 3.2 | 0.00 | 0.00 | 0.00 | 80 | 1014.6 |
| 20260507124019 | 2 | 290 | 0.0 | 3.2 | 0.00 | 0.00 | 0.00 | 82 | 1014.7 |
| 20260507123519 | 2 | 287 | 1.6 | 4.8 | 0.00 | 0.00 | 0.00 | 82 | 1014.6 |
| 20260507123017 | 1 | 284 | 1.6 | 4.8 | 0.00 | 0.00 | 0.00 | 82 | 1014.7 |
| 20260507122521 | 1 | 285 | 0.0 | 3.2 | 0.00 | 0.00 | 0.00 | 83 | 1014.7 |
| 20260507122019 | 1 | 288 | 0.0 | 3.2 | 0.00 | 0.00 | 0.00 | 84 | 1014.7 |
| 20260507121518 | 1 | 290 | 0.0 | 1.6 | 0.00 | 0.00 | 0.00 | 84 | 1014.6 |
| 20260507121018 | 1 | 291 | 0.0 | 1.6 | 0.00 | 0.00 | 0.00 | 85 | 1014.6 |
| 20260507120517 | 0 | 290 | 0.0 | 1.6 | 0.00 | 0.00 | 0.00 | 87 | 1014.5 |
| 20260507120018 | 0 | 293 | 0.0 | 1.6 | 0.00 | 0.00 | 0.00 | 89 | 1014.6 |
| 20260507115517 | 0 | 293 | 0.0 | 0.0 | 0.00 | 0.00 | 0.00 | 90 | 1014.5 |
| 20260507115016 | 0 | 293 | 0.0 | 1.6 | 0.00 | 0.00 | 0.00 | 91 | 1014.5 |
| 20260507114516 | -1 | 293 | 0.0 | 1.6 | 0.00 | 0.00 | 0.00 | 91 | 1014.6 |
| 20260507114016 | -1 | 293 | 0.0 | 0.0 | 0.00 | 0.00 | 0.00 | 90 | 1014.6 |
| 20260507113520 | -1 | 292 | 0.0 | 0.0 | 0.00 | 0.00 | 0.00 | 90 | 1014.6 |
| 20260507113016 | -1 | 293 | 0.0 | 0.0 | 0.00 | 0.00 | 0.00 | 90 | 1014.6 |
| 20260507112520 | -1 | 293 | 0.0 | 1.6 | 0.00 | 0.00 | 0.00 | 91 | 1014.6 |
| 20260507112015 | -1 | 293 | 0.0 | 1.6 | 0.00 | 0.00 | 0.00 | 91 | 1014.6 |
| 20260507111514 | -2 | 293 | 0.0 | 1.6 | 0.00 | 0.00 | 0.00 | 90 | 1014.5 |
| 20260507111018 | -2 | 293 | 0.0 | 1.6 | 0.00 | 0.00 | 0.00 | 89 | 1014.5 |
| 20260507110513 | -2 | 292 | 0.0 | 1.6 | 0.00 | 0.00 | 0.00 | 89 | 1014.6 |
| 20260507110113 | -2 | 284 | 0.0 | 0.0 | 0.00 | 0.00 | 0.00 | 88 | 1014.6 |
| 20260507105511 | -2 | 277 | 0.0 | 0.0 | 0.00 | 0.00 | 0.00 | 88 | 1014.6 |
| 20260507105013 | -2 | 277 | 0.0 | 0.0 | 0.00 | 0.00 | 0.00 | 86 | 1014.5 |
| 20260507104534 | -2 | 277 | 0.0 | 0.0 | 0.00 | 0.00 | 0.00 | 86 | 1014.5 |
| 20260507104009 | -1 | 277 | 0.0 | 0.0 | 0.00 | 0.00 | 0.00 | 86 | 1014.5 |
| 20260507103508 | -1 | 277 | 0.0 | 0.0 | 0.00 | 0.00 | 0.00 | 86 | 1014.6 |
| 20260507103009 | -1 | 277 | 0.0 | 0.0 | 0.00 | 0.00 | 0.00 | 86 | 1014.7 |
| 20260507102506 | -1 | 277 | 0.0 | 0.0 | 0.00 | 0.00 | 0.00 | 85 | 1014.7 |
| 20260507102007 | -1 | 266 | 0.0 | 0.0 | 0.00 | 0.00 | 0.00 | 83 | 1014.6 |
| 20260507101512 | -1 | 266 | 0.0 | 0.0 | 0.00 | 0.00 | 0.00 | 83 | 1014.6 |
| 20260507101008 | -1 | 266 | 0.0 | 0.0 | 0.00 | 0.00 | 0.00 | 82 | 1014.6 |
| 20260507100503 | -1 | 266 | 0.0 | 0.0 | 0.00 | 0.00 | 0.00 | 82 | 1014.6 |
| 20260507100006 | -1 | 266 | 0.0 | 0.0 | 0.00 | 0.00 | 0.00 | 82 | 1014.6 |
| 20260507095503 | -1 | 265 | 0.0 | 1.6 | 0.00 | 0.00 | 0.00 | 82 | 1014.7 |
| 20260507095003 | -1 | 257 | 0.0 | 1.6 | 0.00 | 0.00 | 0.00 | 82 | 1014.7 |
| 20260507094502 | -1 | 253 | 0.0 | 1.6 | 0.00 | 0.00 | 0.00 | 81 | 1014.7 |
| 20260507094001 | -1 | 259 | 0.0 | 1.6 | 0.00 | 0.00 | 0.00 | 81 | 1014.7 |
| 20260507093503 | -1 | 257 | 0.0 | 1.6 | 0.00 | 0.00 | 0.00 | 81 | 1014.8 |
| 20260507093100 | -1 | 249 | 0.0 | 1.6 | 0.00 | 0.00 | 0.00 | 81 | 1014.8 |
| 20260507092600 | -1 | 242 | 0.0 | 1.6 | 0.00 | 0.00 | 0.00 | 81 | 1014.7 |
| 20260507092102 | -1 | 242 | 1.6 | 1.6 | 0.00 | 0.00 | 0.00 | 81 | 1014.7 |
| 20260507091558 | 0 | 242 | 0.0 | 1.6 | 0.00 | 0.00 | 0.00 | 82 | 1014.8 |
| 20260507091056 | 0 | 249 | 0.0 | 1.6 | 0.00 | 0.00 | 0.00 | 83 | 1014.8 |
| 20260507090554 | 0 | 265 | 0.0 | 1.6 | 0.00 | 0.00 | 0.00 | 83 | 1014.8 |
| 20260507090059 | 0 | 267 | 0.0 | 3.2 | 0.00 | 0.00 | 0.00 | 82 | 1014.8 |
| 20260507085553 | 0 | 280 | 0.0 | 3.2 | 0.00 | 0.00 | 0.00 | 82 | 1014.9 |
| 20260507085053 | 0 | 276 | 0.0 | 3.2 | 0.00 | 0.00 | 0.00 | 82 | 1014.9 |
| 20260507084559 | 0 | 277 | 0.0 | 3.2 | 0.00 | 0.00 | 0.00 | 82 | 1014.9 |
| 20260507084054 | 0 | 278 | 0.0 | 3.2 | 0.00 | 0.00 | 0.00 | 81 | 1014.9 |
| 20260507083552 | 0 | 277 | 0.0 | 3.2 | 0.00 | 0.00 | 0.00 | 81 | 1014.9 |
| 20260507083052 | 0 | 285 | 1.6 | 3.2 | 0.00 | 0.00 | 0.00 | 80 | 1014.9 |
| 20260507082551 | 0 | 288 | 1.6 | 3.2 | 0.00 | 0.00 | 0.00 | 80 | 1014.8 |
| 20260507082050 | 0 | 285 | 0.0 | 3.2 | 0.00 | 0.00 | 0.00 | 80 | 1014.8 |
| 20260507081552 | 0 | 281 | 1.6 | 3.2 | 0.00 | 0.00 | 0.00 | 81 | 1014.8 |
| 20260507081050 | 0 | 285 | 1.6 | 3.2 | 0.00 | 0.00 | 0.00 | 81 | 1014.8 |
| 20260507080550 | 0 | 287 | 1.6 | 4.8 | 0.00 | 0.00 | 0.00 | 81 | 1014.8 |
| 20260507080105 | 0 | 301 | 1.6 | 4.8 | 0.00 | 0.00 | 0.00 | 80 | 1014.8 |
| 20260507075549 | 0 | 281 | 1.6 | 4.8 | 0.00 | 0.00 | 0.00 | 80 | 1014.8 |
| 20260507075048 | 0 | 285 | 1.6 | 4.8 | 0.00 | 0.00 | 0.00 | 79 | 1014.8 |
| 20260507074549 | 0 | 283 | 0.0 | 3.2 | 0.00 | 0.00 | 0.00 | 78 | 1014.8 |
| 20260507074047 | 0 | 263 | 0.0 | 3.2 | 0.00 | 0.00 | 0.00 | 78 | 1014.8 |
| 20260507073547 | 0 | 259 | 0.0 | 3.2 | 0.00 | 0.00 | 0.00 | 78 | 1014.8 |
| 20260507073051 | 0 | 270 | 0.0 | 6.4 | 0.00 | 0.00 | 0.00 | 79 | 1014.9 |
| 20260507072545 | 0 | 266 | 3.2 | 6.4 | 0.00 | 0.00 | 0.00 | 79 | 1015.1 |
| 20260507072045 | 0 | 274 | 0.0 | 3.2 | 0.00 | 0.00 | 0.00 | 78 | 1015.1 |
| 20260507071545 | 0 | 273 | 0.0 | 3.2 | 0.00 | 0.00 | 0.00 | 77 | 1015.1 |
| 20260507071044 | 0 | 273 | 1.6 | 3.2 | 0.00 | 0.00 | 0.00 | 77 | 1015.2 |
| 20260507070544 | 0 | 266 | 1.6 | 3.2 | 0.00 | 0.00 | 0.00 | 78 | 1015.1 |
| 20260507070044 | 0 | 266 | 1.6 | 3.2 | 0.00 | 0.00 | 0.00 | 78 | 1015.2 |
| 20260507065544 | 0 | 249 | 0.0 | 1.6 | 0.00 | 0.00 | 0.00 | 78 | 1015.1 |
| 20260507065040 | 0 | 282 | 0.0 | 1.6 | 0.00 | 0.00 | 0.00 | 79 | 1015.1 |
| 20260507064540 | 0 | 283 | 0.0 | 1.6 | 0.00 | 0.00 | 0.00 | 80 | 1015.1 |
| 20260507064039 | 0 | 285 | 0.0 | 1.6 | 0.00 | 0.00 | 0.00 | 81 | 1015.2 |
| 20260507063539 | 0 | 277 | 0.0 | 1.6 | 0.00 | 0.00 | 0.00 | 80 | 1015.3 |
| 20260507063037 | 0 | 277 | 0.0 | 1.6 | 0.00 | 0.00 | 0.00 | 79 | 1015.3 |
| 20260507062536 | 1 | 281 | 0.0 | 1.6 | 0.00 | 0.00 | 0.00 | 80 | 1015.3 |
| 20260507062035 | 1 | 277 | 0.0 | 1.6 | 0.00 | 0.00 | 0.00 | 80 | 1015.4 |
| 20260507061535 | 1 | 276 | 0.0 | 1.6 | 0.00 | 0.00 | 0.00 | 81 | 1015.5 |
| 20260507061034 | 1 | 276 | 0.0 | 0.0 | 0.00 | 0.00 | 0.00 | 80 | 1015.5 |
| 20260507060533 | 1 | 276 | 0.0 | 1.6 | 0.00 | 0.00 | 0.00 | 78 | 1015.5 |
| 20260507060038 | 1 | 276 | 0.0 | 1.6 | 0.00 | 0.00 | 0.00 | 78 | 1015.6 |
| 20260507055532 | 1 | 283 | 0.0 | 1.6 | 0.00 | 0.00 | 0.00 | 78 | 1015.7 |
| 20260507055033 | 1 | 285 | 0.0 | 1.6 | 0.00 | 0.00 | 0.00 | 78 | 1015.6 |
| 20260507054537 | 1 | 285 | 0.0 | 1.6 | 0.00 | 0.00 | 0.00 | 77 | 1015.6 |
| 20260507054030 | 1 | 285 | 0.0 | 1.6 | 0.00 | 0.00 | 0.00 | 77 | 1015.7 |
| 20260507053529 | 1 | 290 | 0.0 | 1.6 | 0.00 | 0.00 | 0.00 | 77 | 1015.7 |
| 20260507053028 | 1 | 333 | 0.0 | 0.0 | 0.00 | 0.00 | 0.00 | 75 | 1015.8 |
| 20260507052527 | 1 | 333 | 0.0 | 0.0 | 0.00 | 0.00 | 0.00 | 73 | 1015.8 |
| 20260507052026 | 1 | 333 | 0.0 | 0.0 | 0.00 | 0.00 | 0.00 | 70 | 1015.8 |
| 20260507051524 | 2 | 333 | 0.0 | 0.0 | 0.00 | 0.00 | 0.00 | 68 | 1015.9 |
| 20260507051024 | 2 | 333 | 0.0 | 1.6 | 0.00 | 0.00 | 0.00 | 68 | 1015.9 |
| 20260507050522 | 2 | 333 | 0.0 | 3.2 | 0.00 | 0.00 | 0.00 | 68 | 1015.9 |
| 20260507050026 | 2 | 311 | 0.0 | 1.6 | 0.00 | 0.00 | 0.00 | 68 | 1015.9 |
| 20260507045521 | 2 | 311 | 0.0 | 1.6 | 0.00 | 0.00 | 0.00 | 67 | 1016.0 |
| 20260507045020 | 2 | 318 | 0.0 | 1.6 | 0.00 | 0.00 | 0.00 | 67 | 1015.9 |
| 20260507044521 | 2 | 295 | 0.0 | 1.6 | 0.00 | 0.00 | 0.00 | 66 | 1016.0 |
| 20260507044020 | 2 | 295 | 0.0 | 1.6 | 0.00 | 0.00 | 0.00 | 66 | 1016.0 |
| 20260507043520 | 2 | 299 | 0.0 | 1.6 | 0.00 | 0.00 | 0.00 | 66 | 1016.1 |
| 20260507043023 | 2 | 288 | 0.0 | 0.0 | 0.00 | 0.00 | 0.00 | 66 | 1016.0 |
| 20260507042519 | 2 | 288 | 0.0 | 1.6 | 0.00 | 0.00 | 0.00 | 66 | 1016.0 |
| 20260507042019 | 2 | 288 | 0.0 | 1.6 | 0.00 | 0.00 | 0.00 | 66 | 1016.1 |
| 20260507041519 | 2 | 288 | 0.0 | 1.6 | 0.00 | 0.00 | 0.00 | 66 | 1016.1 |
| 20260507041018 | 2 | 315 | 0.0 | 1.6 | 0.00 | 0.00 | 0.00 | 66 | 1016.1 |
| 20260507040519 | 2 | 315 | 0.0 | 1.6 | 0.00 | 0.00 | 0.00 | 65 | 1016.2 |
| 20260507040018 | 3 | 9 | 0.0 | 0.0 | 0.00 | 0.00 | 0.00 | 64 | 1016.2 |
| 20260507035518 | 3 | 10 | 0.0 | 0.0 | 0.00 | 0.00 | 0.00 | 63 | 1016.3 |
| 20260507035018 | 3 | 10 | 0.0 | 0.0 | 0.00 | 0.00 | 0.00 | 62 | 1016.3 |
| 20260507034520 | 3 | 10 | 0.0 | 1.6 | 0.00 | 0.00 | 0.00 | 61 | 1016.2 |
| 20260507034017 | 3 | 10 | 0.0 | 1.6 | 0.00 | 0.00 | 0.00 | 61 | 1016.2 |
| 20260507033517 | 3 | 11 | 0.0 | 1.6 | 0.00 | 0.00 | 0.00 | 60 | 1016.2 |
| 20260507033016 | 3 | 315 | 0.0 | 1.6 | 0.00 | 0.00 | 0.00 | 60 | 1016.3 |
| 20260507032516 | 3 | 330 | 0.0 | 1.6 | 0.00 | 0.00 | 0.00 | 60 | 1016.3 |
| 20260507032015 | 3 | 312 | 0.0 | 1.6 | 0.00 | 0.00 | 0.00 | 60 | 1016.3 |
| 20260507031515 | 3 | 307 | 0.0 | 1.6 | 0.00 | 0.00 | 0.00 | 60 | 1016.3 |
| 20260507031016 | 3 | 308 | 0.0 | 1.6 | 0.00 | 0.00 | 0.00 | 60 | 1016.3 |
| 20260507030516 | 3 | 316 | 0.0 | 1.6 | 0.00 | 0.00 | 0.00 | 60 | 1016.4 |
| 20260507030019 | 3 | 339 | 0.0 | 1.6 | 0.00 | 0.00 | 0.00 | 60 | 1016.3 |
| 20260507025515 | 3 | 339 | 0.0 | 0.0 | 0.00 | 0.00 | 0.00 | 61 | 1016.4 |
| 20260507025015 | 3 | 311 | 0.0 | 0.0 | 0.00 | 0.00 | 0.00 | 61 | 1016.4 |
| 20260507024515 | 3 | 311 | 0.0 | 0.0 | 0.00 | 0.00 | 0.00 | 61 | 1016.4 |
| 20260507024017 | 3 | 311 | 0.0 | 0.0 | 0.00 | 0.00 | 0.00 | 60 | 1016.3 |
| 20260507023516 | 3 | 311 | 0.0 | 0.0 | 0.00 | 0.00 | 0.00 | 60 | 1016.4 |
| 20260507023014 | 3 | 311 | 0.0 | 0.0 | 0.00 | 0.00 | 0.00 | 59 | 1016.4 |
| 20260507022514 | 3 | 311 | 0.0 | 1.6 | 0.00 | 0.00 | 0.00 | 57 | 1016.4 |
| 20260507022017 | 3 | 311 | 0.0 | 1.6 | 0.00 | 0.00 | 0.00 | 57 | 1016.4 |
| 20260507021514 | 3 | 307 | 0.0 | 1.6 | 0.00 | 0.00 | 0.00 | 56 | 1016.5 |
| 20260507021013 | 4 | 316 | 0.0 | 3.2 | 0.00 | 0.00 | 0.00 | 56 | 1016.4 |
| 20260507020514 | 4 | 319 | 0.0 | 3.2 | 0.00 | 0.00 | 0.00 | 55 | 1016.3 |
| 20260507020014 | 4 | 313 | 0.0 | 3.2 | 0.00 | 0.00 | 0.00 | 55 | 1016.3 |
| 20260507015513 | 4 | 328 | 0.0 | 6.4 | 0.00 | 0.00 | 0.00 | 55 | 1016.3 |
| 20260507015013 | 4 | 6 | 1.6 | 6.4 | 0.00 | 0.00 | 0.00 | 55 | 1016.3 |
| 20260507014519 | 4 | 333 | 1.6 | 8.0 | 0.00 | 0.00 | 0.00 | 55 | 1016.3 |
| 20260507014013 | 4 | 354 | 1.6 | 9.7 | 0.00 | 0.00 | 0.00 | 55 | 1016.4 |
| 20260507013512 | 5 | 311 | 1.6 | 8.0 | 0.00 | 0.00 | 0.00 | 54 | 1016.3 |
| 20260507013028 | 5 | 278 | 3.2 | 9.7 | 0.00 | 0.00 | 0.00 | 54 | 1016.4 |
| 20260507012512 | 5 | 297 | 1.6 | 9.7 | 0.00 | 0.00 | 0.00 | 54 | 1016.4 |
| 20260507012012 | 5 | 304 | 0.0 | 8.0 | 0.00 | 0.00 | 0.00 | 54 | 1016.3 |
| 20260507011514 | 5 | 309 | 1.6 | 8.0 | 0.00 | 0.00 | 0.00 | 54 | 1016.3 |
| 20260507011011 | 5 | 309 | 0.0 | 4.8 | 0.00 | 0.00 | 0.00 | 53 | 1016.3 |
| 20260507010512 | 5 | 26 | 0.0 | 4.8 | 0.00 | 0.00 | 0.00 | 52 | 1016.4 |
| 20260507010018 | 5 | 321 | 0.0 | 9.7 | 0.00 | 0.00 | 0.00 | 52 | 1016.4 |
| 20260507005512 | 5 | 343 | 1.6 | 9.7 | 0.00 | 0.00 | 0.00 | 51 | 1016.3 |
| 20260507005011 | 5 | 47 | 1.6 | 11.3 | 0.00 | 0.00 | 0.00 | 51 | 1016.4 |
| 20260507004512 | 5 | 23 | 3.2 | 11.3 | 0.00 | 0.00 | 0.00 | 51 | 1016.5 |
| 20260507004011 | 5 | 323 | 3.2 | 11.3 | 0.00 | 0.00 | 0.00 | 52 | 1016.5 |
| 20260507003511 | 5 | 335 | 1.6 | 12.9 | 0.00 | 0.00 | 0.00 | 52 | 1016.5 |
| 20260507003010 | 5 | 336 | 4.8 | 12.9 | 0.00 | 0.00 | 0.00 | 50 | 1016.4 |
| 20260507002515 | 5 | 9 | 4.8 | 12.9 | 0.00 | 0.00 | 0.00 | 50 | 1016.5 |
| 20260507002009 | 5 | 12 | 4.8 | 12.9 | 0.00 | 0.00 | 0.00 | 50 | 1016.5 |
| 20260507001510 | 6 | 334 | 3.2 | 17.7 | 0.00 | 0.00 | 0.00 | 51 | 1016.6 |
| 20260507001010 | 6 | 275 | 8.0 | 17.7 | 0.00 | 0.00 | 0.00 | 50 | 1016.6 |
| 20260507000509 | 6 | 340 | 4.8 | 14.5 | 0.00 | 0.00 | 0.00 | 49 | 1016.6 |
| 20260507000008 | 6 | 259 | 4.8 | 14.5 | 0.00 | 0.00 | 0.00 | 49 | 1016.7 |
| 20260506235508 | 6 | 322 | 4.8 | 14.5 | 0.00 | 0.00 | 0.00 | 50 | 1016.7 |
| 20260506235007 | 5 | 332 | 4.8 | 17.7 | 0.00 | 0.00 | 0.00 | 51 | 1016.8 |
| 20260506234507 | 5 | 316 | 1.6 | 17.7 | 0.00 | 0.00 | 0.00 | 51 | 1016.8 |
| 20260506234011 | 5 | 337 | 6.4 | 19.3 | 0.00 | 0.00 | 0.00 | 50 | 1016.8 |
| 20260506233507 | 5 | 324 | 9.7 | 20.9 | 0.00 | 0.00 | 0.00 | 52 | 1016.9 |
| 20260506233008 | 5 | 295 | 14.5 | 27.4 | 0.00 | 0.00 | 0.00 | 51 | 1016.9 |
| 20260506232505 | 5 | 307 | 9.7 | 29.0 | 0.00 | 0.00 | 0.00 | 52 | 1017.0 |
| 20260506232005 | 5 | 293 | 17.7 | 29.0 | 0.00 | 0.00 | 0.00 | 51 | 1016.9 |
| 20260506231505 | 5 | 285 | 19.3 | 29.0 | 0.00 | 0.00 | 0.00 | 52 | 1017.0 |
| 20260506231006 | 5 | 264 | 12.9 | 27.4 | 0.00 | 0.00 | 0.00 | 52 | 1017.0 |
| 20260506230507 | 5 | 283 | 14.5 | 27.4 | 0.00 | 0.00 | 0.00 | 51 | 1016.9 |
| 20260506230009 | 5 | 290 | 16.1 | 27.4 | 0.00 | 0.00 | 0.00 | 51 | 1017.0 |
| 20260506225506 | 5 | 287 | 11.3 | 24.1 | 0.00 | 0.00 | 0.00 | 52 | 1017.0 |
| 20260506225006 | 6 | 242 | 8.0 | 24.1 | 0.00 | 0.00 | 0.00 | 51 | 1017.1 |
| 20260506224505 | 6 | 281 | 14.5 | 29.0 | 0.00 | 0.00 | 0.00 | 52 | 1017.0 |
| 20260506224004 | 6 | 290 | 16.1 | 29.0 | 0.00 | 0.00 | 0.00 | 50 | 1016.9 |
| 20260506223504 | 6 | 287 | 6.4 | 19.3 | 0.00 | 0.00 | 0.00 | 50 | 1017.0 |
| 20260506223004 | 6 | 359 | 9.7 | 19.3 | 0.00 | 0.00 | 0.00 | 50 | 1017.0 |
| 20260506222504 | 6 | 269 | 9.7 | 20.9 | 0.00 | 0.00 | 0.00 | 50 | 1017.0 |
| 20260506222004 | 6 | 291 | 8.0 | 22.5 | 0.00 | 0.00 | 0.00 | 50 | 1017.0 |
| 20260506221504 | 6 | 225 | 12.9 | 27.4 | 0.00 | 0.00 | 0.00 | 50 | 1016.9 |
| 20260506221003 | 6 | 295 | 9.7 | 27.4 | 0.00 | 0.00 | 0.00 | 50 | 1016.9 |
| 20260506220504 | 6 | 311 | 9.7 | 27.4 | 0.00 | 0.00 | 0.00 | 51 | 1016.9 |
| 20260506220003 | 6 | 278 | 8.0 | 25.7 | 0.00 | 0.00 | 0.00 | 50 | 1016.8 |
| 20260506215504 | 6 | 318 | 14.5 | 25.7 | 0.00 | 0.00 | 0.00 | 50 | 1016.9 |
| 20260506215003 | 6 | 281 | 8.0 | 19.3 | 0.00 | 0.00 | 0.00 | 50 | 1017.0 |
| 20260506214507 | 6 | 311 | 6.4 | 20.9 | 0.00 | 0.00 | 0.00 | 50 | 1017.1 |
| 20260506214003 | 6 | 283 | 12.9 | 20.9 | 0.00 | 0.00 | 0.00 | 49 | 1017.0 |
| 20260506213502 | 6 | 336 | 4.8 | 17.7 | 0.00 | 0.00 | 0.00 | 51 | 1017.1 |
| 20260506213002 | 6 | 281 | 8.0 | 17.7 | 0.00 | 0.00 | 0.00 | 50 | 1017.1 |
| 20260506212503 | 6 | 294 | 3.2 | 17.7 | 0.00 | 0.00 | 0.00 | 50 | 1017.1 |
| 20260506212001 | 6 | 292 | 4.8 | 17.7 | 0.00 | 0.00 | 0.00 | 50 | 1017.1 |
| 20260506211501 | 5 | 351 | 8.0 | 20.9 | 0.00 | 0.00 | 0.00 | 50 | 1017.2 |
| 20260506211002 | 5 | 336 | 6.4 | 20.9 | 0.00 | 0.00 | 0.00 | 51 | 1017.3 |
| 20260506210502 | 5 | 285 | 11.3 | 20.9 | 0.00 | 0.00 | 0.00 | 51 | 1017.3 |
| 20260506210003 | 5 | 283 | 9.7 | 20.9 | 0.00 | 0.00 | 0.00 | 51 | 1017.3 |
| 20260506205601 | 5 | 266 | 9.7 | 25.7 | 0.00 | 0.00 | 0.00 | 51 | 1017.4 |
| 20260506205100 | 5 | 316 | 14.5 | 25.7 | 0.00 | 0.00 | 0.00 | 51 | 1017.3 |
| 20260506204602 | 5 | 35 | 4.8 | 19.3 | 0.00 | 0.00 | 0.00 | 51 | 1017.4 |
| 20260506204103 | 5 | 278 | 9.7 | 32.2 | 0.00 | 0.00 | 0.00 | 50 | 1017.5 |
| 20260506203600 | 5 | 307 | 17.7 | 32.2 | 0.00 | 0.00 | 0.00 | 50 | 1017.5 |
| 20260506203100 | 5 | 333 | 8.0 | 16.1 | 0.00 | 0.00 | 0.00 | 52 | 1017.5 |
| 20260506202559 | 5 | 248 | 6.4 | 24.1 | 0.00 | 0.00 | 0.00 | 51 | 1017.5 |
| 20260506202100 | 5 | 284 | 11.3 | 27.4 | 0.00 | 0.00 | 0.00 | 50 | 1017.6 |
| 20260506201559 | 6 | 283 | 14.5 | 27.4 | 0.00 | 0.00 | 0.00 | 51 | 1017.5 |
| 20260506201058 | 6 | 332 | 1.6 | 20.9 | 0.00 | 0.00 | 0.00 | 51 | 1017.5 |
| 20260506200558 | 5 | 332 | 6.4 | 30.6 | 0.00 | 0.00 | 0.00 | 52 | 1017.6 |
| 20260506200058 | 5 | 269 | 20.9 | 30.6 | 0.00 | 0.00 | 0.00 | 50 | 1017.6 |
| 20260506195558 | 6 | 315 | 8.0 | 22.5 | 0.00 | 0.00 | 0.00 | 49 | 1017.6 |
| 20260506195102 | 6 | 360 | 6.4 | 22.5 | 0.00 | 0.00 | 0.00 | 51 | 1017.7 |
| 20260506194601 | 6 | 262 | 3.2 | 22.5 | 0.00 | 0.00 | 0.00 | 53 | 1017.6 |
| 20260506194056 | 5 | 336 | 4.8 | 25.7 | 0.00 | 0.00 | 0.00 | 52 | 1017.6 |
| 20260506193554 | 5 | 277 | 11.3 | 22.5 | 0.00 | 0.00 | 0.00 | 52 | 1017.4 |
| 20260506193054 | 5 | 347 | 9.7 | 19.3 | 0.00 | 0.00 | 0.00 | 52 | 1017.8 |
| 20260506192553 | 5 | 15 | 6.4 | 24.1 | 0.00 | 0.00 | 0.00 | 54 | 1017.7 |
| 20260506192054 | 5 | 273 | 11.3 | 25.7 | 0.00 | 0.00 | 0.00 | 54 | 1017.7 |
| 20260506191552 | 5 | 260 | 12.9 | 30.6 | 0.00 | 0.00 | 0.00 | 52 | 1017.7 |
| 20260506191051 | 5 | 330 | 12.9 | 30.6 | 0.00 | 0.00 | 0.00 | 53 | 1017.7 |
| 20260506190550 | 5 | 318 | 3.2 | 22.5 | 0.00 | 0.00 | 0.00 | 54 | 1017.8 |
| 20260506190051 | 5 | 270 | 12.9 | 22.5 | 0.00 | 0.00 | 0.00 | 54 | 1017.8 |
| 20260506185550 | 4 | 274 | 4.8 | 16.1 | 0.00 | 0.00 | 0.00 | 53 | 1017.8 |
| 20260506185052 | 5 | 320 | 8.0 | 16.1 | 0.00 | 0.00 | 0.00 | 53 | 1017.8 |
| 20260506184553 | 5 | 314 | 8.0 | 16.1 | 0.00 | 0.00 | 0.00 | 53 | 1017.8 |
| 20260506184049 | 4 | 50 | 1.6 | 19.3 | 0.00 | 0.00 | 0.00 | 55 | 1017.9 |
| 20260506183549 | 4 | 294 | 1.6 | 20.9 | 0.00 | 0.00 | 0.00 | 55 | 1017.9 |
| 20260506183055 | 4 | 311 | 12.9 | 24.1 | 0.00 | 0.00 | 0.00 | 55 | 1017.9 |
| 20260506182548 | 4 | 307 | 9.7 | 24.1 | 0.00 | 0.00 | 0.00 | 55 | 1018.0 |
| 20260506182045 | 4 | 6 | 8.0 | 22.5 | 0.00 | 0.00 | 0.00 | 55 | 1018.0 |
| 20260506181611 | 4 | 298 | 9.7 | 20.9 | 0.00 | 0.00 | 0.00 | 55 | 1018.1 |
| 20260506181044 | 3 | 295 | 3.2 | 20.9 | 0.00 | 0.00 | 0.00 | 58 | 1018.1 |